Regional Weather Roundup
Issued by NWS

Home | Current Version | Previous Version | Text Only | Print | Product List | Glossary Off
Versions: 1 2 3 4 5 6 7 8 9 10 11 12 13 14 15 16 17 18 19 20 21 22 23 24 25 26 27 28 29 30 31 32 33 34 35 36 37 38 39 40 41 42 43 44 45 46 47 48 49 50

000
ASUS43 KFSD 100102
RWRSD

WEATHER ROUNDUP FOR SOUTH DAKOTA
NATIONAL WEATHER SERVICE SIOUX FALLS SD
700 PM CST FRI DEC 09 2016

NOTE: "FAIR" INDICATES FEW OR NO CLOUDS BELOW 12,000 FEET WITH NO
SIGNIFICANT WEATHER AND/OR OBSTRUCTIONS TO VISIBILITY.


SDZ001>005-009-010-012>017-100200-
NORTHWEST AND NORTH CENTRAL SOUTH DAKOTA

CITY           SKY/WX    TMP DP  RH WIND       PRES   REMARKS
BUFFALO          N/A     -4  -8  83 E10       30.25F WCI -21
FAITH            N/A     -7  -9  91 NE3       30.43S
MOBRIDGE       CLOUDY    -1  -8  72 NW7       30.49S WCI -14
$$

SDZ012>016-024>037-041>051-057-063-072>074-100200-
SOUTHWEST AND SOUTH CENTRAL SOUTH DAKOTA

CITY           SKY/WX    TMP DP  RH WIND       PRES   REMARKS
RAPID CTY ARPT CLOUDY     1  -4  79 E7        30.33F WCI -12
PIERRE         CLOUDY     1  -5  75 NE9       30.50F WCI -14
CUSTER         CLOUDY     4  -3  73 CALM      30.06F
ELLSWORTH AFB  CLOUDY     1  -4  79 E6        30.32F WCI -10
PHILIP         CLOUDY     3  -1  83 NE8       30.47R WCI -10
PINE RIDGE     CLOUDY     4   0  83 NE7       30.31S WCI  -8
SPEARFISH      FAIR      -2  -8  78 E6        30.24F WCI -14
WINNER         FLURRIES  10   5  80 N8        30.44F WCI  -2
$$

SDZ004>011-016>023-039-040-100200-
NORTHEAST SOUTH DAKOTA

CITY           SKY/WX    TMP DP  RH WIND       PRES   REMARKS
ABERDEEN       CLEAR      1  -7  68 N8        30.55S WCI -13
WATERTOWN      CLOUDY     1  -4  79 N6        30.47F WCI -10
SISSETON         N/A      1  -4  79 NW9       30.54R WCI -14
$$

SDZ017-020-022-023-036>040-048>070-100200-
SOUTHEAST SOUTH DAKOTA

CITY           SKY/WX    TMP DP  RH WIND       PRES   REMARKS
SIOUX FALLS    LGT SNOW  14   9  80 CALM      30.49S
HURON          CLOUDY     5   1  83 N5        30.54S WCI  -4
CHAMBERLAIN    CLOUDY     9   4  82 NE6       30.49S WCI  -1
MITCHELL       LGT SNOW   7   4  87 N8        30.54S FOG     WCI  -6
YANKTON        CLOUDY    14   9  79 NE3       30.49F
$$

ABBREVIATIONS USED IN REMARKS
   TC - TEMPERATURE IN CELSIUS
  WCI - WIND CHILL INDEX
   HX - HEAT INDEX
  VSB - VISIBILITY





USA.gov is the U.S. government's official web portal to all federal, state and local government web resources and services.